Weather History for KDMA - November, 2011

Change the Weather History Date:

Monday, November 28, 2011

  Actual Average Record
Temperature  
Mean Temperature 60 °F -  
Max Temperature 73 °F 67 °F 84 °F (1950)
Min Temperature 46 °F 40 °F 26 °F (2005)
Degree Days  
Heating Degree Days 6    
Growing Degree Days 10 (Base 50)    
Moisture  
Dew Point 23 °F    
Average Humidity 29    
Maximum Humidity 50    
Minimum Humidity 12    
Precipitation  
Precipitation 0.00 in - - ()
Sea Level Pressure  
Sea Level Pressure 30.15 in    
Wind  
Wind Speed 7 mph (SE)    
Max Wind Speed 12 mph    
Max Gust Speed -    
Visibility 10 miles    
Events      
Averages and records for this station are not official NWS values.
T = Trace of Precipitation, MM = Missing Value Source: NWS Daily Summary

Daily Weather History Graph

Daily Weather History Graph

Search for Another Location

Airport or City:

Trip Planner

Search our weather history database for the weather conditions in past years. The results will help you decide how hot, cold, wet, or windy it might be!

Date:

Astronomy

Nov. 28, 2011 Rise Set
Actual Time 7:03 AM MST 5:18 PM MST
Civil Twilight 6:37 AM MST 5:45 PM MST
Nautical Twilight 6:07 AM MST 6:15 PM MST
Astronomical Twilight 5:37 AM MST 6:45 PM MST
Moon 10:17 AM MST (11/28) 9:06 PM MST (11/28)
Length of Visible Light 11h 08m
Length of Day
10h 15m
Waxing Crescent, 16% of the Moon is Illuminated
Nov 28
Waxing Crescent
Dec 2
First Quarter
Dec 10
Full
Dec 17
Last Quarter
Dec 24
New

Hourly Weather History & Observations

Time (MST) Temp. Dew Point Humidity Pressure Visibility Wind Dir Wind Speed Gust Speed Precip Events Conditions
12:55 AM 49.8 °F 22.6 °F 34% 30.23 in 10.0 mi ESE 9.2 mph - N/A   Clear
1:55 AM 51.3 °F 20.5 °F 30% 30.22 in 10.0 mi SE 6.9 mph - N/A   Clear
2:55 AM 50.7 °F 21.4 °F 32% 30.20 in 10.0 mi SE 6.9 mph - N/A   Clear
3:55 AM 49.1 °F 20.1 °F 32% 30.19 in 10.0 mi SE 11.5 mph - N/A   Clear
4:55 AM 47.5 °F 19.9 °F 34% 30.19 in 10.0 mi SSE 9.2 mph - N/A   Clear
5:55 AM 47.5 °F 21.4 °F 36% 30.20 in 10.0 mi ESE 6.9 mph - N/A   Clear
6:55 AM 46.8 °F 19.8 °F 34% 30.22 in 10.0 mi SE 9.2 mph - N/A   Clear
7:55 AM 48.6 °F 20.5 °F 33% 30.22 in 10.0 mi SE 6.9 mph - N/A   Clear
8:55 AM 55.9 °F 21.7 °F 27% 30.21 in 10.0 mi SE 5.8 mph - N/A   Clear
9:55 AM 61.2 °F 23.4 °F 24% 30.19 in 10.0 mi NNE 4.6 mph - N/A   Clear
10:55 AM 66.7 °F 19.2 °F 16% 30.17 in 10.0 mi NNE 4.6 mph - N/A   Clear
11:55 AM 71.1 °F 19.9 °F 14% 30.12 in 10.0 mi Calm Calm - N/A   Clear
12:55 PM 71.4 °F 20.3 °F 14% 30.11 in 10.0 mi Calm Calm - N/A   Clear
1:55 PM 72.9 °F 21.4 °F 14% 30.07 in 10.0 mi Variable 4.6 mph - N/A   Clear
2:55 PM 72.9 °F 18.1 °F 13% 30.06 in 10.0 mi WNW 3.5 mph - N/A   Clear
3:55 PM 73.9 °F 18.7 °F 12% 30.06 in 10.0 mi NW 6.9 mph - N/A   Clear
4:55 PM 70.0 °F 25.0 °F 18% 30.07 in 10.0 mi NW 4.6 mph - N/A   Clear
5:55 PM 65.5 °F 25.0 °F 22% 30.09 in 10.0 mi Calm Calm - N/A   Clear
7:55 PM 57.7 °F 31.1 °F 36% 30.12 in 10.0 mi Calm Calm - N/A   Clear
8:55 PM 52.0 °F 34.0 °F 50% 30.13 in 10.0 mi SSE 3.5 mph - N/A   Clear
9:55 PM 51.1 °F 30.6 °F 45% 30.10 in 10.0 mi SE 5.8 mph - N/A   Clear
10:55 PM 49.8 °F 28.6 °F 44% 30.09 in 10.0 mi SE 8.1 mph - N/A   Clear
11:55 PM 49.6 °F 27.1 °F 42% 30.08 in 10.0 mi SSE 5.8 mph - N/A   Clear